Location: Unspecified
(0.0000°N, 0.0000°E)
Time: 19:19:24
(UTC+00:00)

CZ-3B DEB - Visible Passes

Search period start: 10 November 2025 00:00
Search period end: 20 November 2025 00:00
Orbit: 513 x 39779 km, 23.4° (Epoch: 12 December)

Date Brightness Start Highest point End Pass type
(mag) Time Alt. Az. Time Alt. Az. Time Alt. Az.
10 Nov ? 22:00:23 10° W 23:13:52 25° W 01:50:34 10° WNW visible
11 Nov ? 21:28:43 10° W 22:48:45 30° W 02:04:52 10° WNW visible
12 Nov ? 20:58:56 10° WSW 22:23:19 36° W 02:17:59 10° WNW visible
13 Nov ? 20:30:22 10° WSW 21:57:33 42° W 02:30:55 10° WNW visible
14 Nov ? 20:02:38 10° WSW 21:31:24 48° W 02:44:33 10° WNW visible
15 Nov ? 19:35:30 10° WSW 21:04:49 54° W 03:00:10 10° WNW visible
16 Nov ? 19:08:49 10° WSW 20:37:41 60° W 06:21:17 10° ESE visible
17 Nov ? 18:42:29 10° WSW 20:09:49 66° WNW 05:56:34 10° ESE visible
18 Nov ? 18:16:26 10° WSW 19:40:49 72° WNW 05:31:48 10° ESE visible
